Starlink 5085

operational
NORAD ID: 55392 Int'l Des: 2023-014 Owner: SPXS Country: US Constellation: starlink
LEOCIRCULAR

关于 Starlink 5085

正在加载描述...

实时位置

正在加载3D地球...

即将过境

高度历史

Altitude vs Time

uPlot chart will show altitude changes over time

两行轨道根数

1 55392U 23014B 25347.98500740 .00000104 00000-0 16499-4 0 9996
2 55392 69.9989 260.4352 0002856 274.3833 85.7000 14.98296652159714
Epoch: Dec 13, 2025 • Age: 15 hours

当前状态

高度 575.3 km
速度 7.58 km/s
星下点 24.11°N, 27.89°W
发射日期 Jan 31, 2023
运行时间 2.8 years
类型 internet

技术详情

分类 Payload
质量 305.00 kg
干质量 290.00 kg
总质量 305.00 kg
长度 0.20 m
直径 2.80 m
跨度 9.00 m
形状 Box + pan
制造商 SPXS
平台类型 Starlink
阶段状态 In Orbit
所有者/国家 SPXS/US

大型星座

Loading constellations...